Year,Month,Day,Hour,Minute,Value (Times are PST for temperature in C)
2018,08,06,00,00,19.30
2018,08,06,00,01,19.30
2018,08,06,00,02,19.30
2018,08,06,00,03,19.30
2018,08,06,00,04,19.30
2018,08,06,00,05,19.30
2018,08,06,00,06,19.30
2018,08,06,00,07,19.30
2018,08,06,00,08,19.30
2018,08,06,00,09,19.30
2018,08,06,00,10,19.30
2018,08,06,00,11,19.20
2018,08,06,00,12,19.20
2018,08,06,00,13,19.20
2018,08,06,00,14,19.20
2018,08,06,00,15,19.20
2018,08,06,00,16,19.10
2018,08,06,00,17,19.10
2018,08,06,00,18,19.10
2018,08,06,00,19,19.10
2018,08,06,00,20,19.10
2018,08,06,00,21,19.00
2018,08,06,00,22,19.00
2018,08,06,00,23,19.00
2018,08,06,00,24,19.00
2018,08,06,00,25,18.90
2018,08,06,00,26,18.90
2018,08,06,00,27,18.90
2018,08,06,00,28,18.90
2018,08,06,00,29,18.90
2018,08,06,00,30,18.90
2018,08,06,00,31,18.90
2018,08,06,00,32,18.90
2018,08,06,00,33,18.90
2018,08,06,00,34,18.80
2018,08,06,00,35,18.80
2018,08,06,00,36,18.80
2018,08,06,00,37,18.80
2018,08,06,00,38,18.80
2018,08,06,00,39,18.70
2018,08,06,00,40,18.70
2018,08,06,00,41,18.70
2018,08,06,00,42,18.70
2018,08,06,00,43,18.70
2018,08,06,00,44,18.70
2018,08,06,00,45,18.70
2018,08,06,00,46,18.70
2018,08,06,00,47,18.70
2018,08,06,00,48,18.60
2018,08,06,00,49,18.60
2018,08,06,00,50,18.60
2018,08,06,00,51,18.60
2018,08,06,00,52,18.60
2018,08,06,00,53,18.60
2018,08,06,00,54,18.60
2018,08,06,00,55,18.60
2018,08,06,00,56,18.60
2018,08,06,00,57,18.60
2018,08,06,00,58,18.70
2018,08,06,00,59,18.70
2018,08,06,01,00,18.80
2018,08,06,01,01,18.90
2018,08,06,01,02,18.90
2018,08,06,01,03,18.90
2018,08,06,01,04,18.90
2018,08,06,01,05,18.90
2018,08,06,01,06,18.90
2018,08,06,01,07,18.90
2018,08,06,01,08,18.90
2018,08,06,01,09,19.00
2018,08,06,01,10,19.00
2018,08,06,01,11,19.10
2018,08,06,01,12,19.10
2018,08,06,01,13,19.10
2018,08,06,01,14,19.10
2018,08,06,01,15,19.10
2018,08,06,01,16,19.00
2018,08,06,01,17,19.00
2018,08,06,01,18,19.00
2018,08,06,01,19,18.90
2018,08,06,01,20,18.90
2018,08,06,01,21,18.90
2018,08,06,01,22,18.90
2018,08,06,01,23,18.90
2018,08,06,01,24,18.90
2018,08,06,01,25,18.80
2018,08,06,01,26,18.80
2018,08,06,01,27,18.80
2018,08,06,01,28,18.80
2018,08,06,01,29,18.80
2018,08,06,01,30,18.80
2018,08,06,01,31,18.80
2018,08,06,01,32,18.70
2018,08,06,01,33,18.70
2018,08,06,01,34,18.70
2018,08,06,01,35,18.70
2018,08,06,01,36,18.70
2018,08,06,01,37,18.70
2018,08,06,01,38,18.80
2018,08,06,01,39,18.80
2018,08,06,01,40,18.90
2018,08,06,01,41,19.00
2018,08,06,01,42,19.10
2018,08,06,01,43,19.10
2018,08,06,01,44,19.20
2018,08,06,01,45,19.20
2018,08,06,01,46,19.30
2018,08,06,01,47,19.30
2018,08,06,01,48,19.30
2018,08,06,01,49,19.20
2018,08,06,01,50,19.20
2018,08,06,01,51,19.20
2018,08,06,01,52,19.20
2018,08,06,01,53,19.10
2018,08,06,01,54,19.10
2018,08,06,01,55,19.10
2018,08,06,01,56,19.00
2018,08,06,01,57,19.00
2018,08,06,01,58,19.00
2018,08,06,01,59,18.90
2018,08,06,02,00,18.90
2018,08,06,02,01,18.90
2018,08,06,02,02,18.90
2018,08,06,02,03,18.90
2018,08,06,02,04,18.90
2018,08,06,02,05,18.90
2018,08,06,02,06,18.80
2018,08,06,02,07,18.80
2018,08,06,02,08,18.70
2018,08,06,02,09,18.70
2018,08,06,02,10,18.60
2018,08,06,02,11,18.60
2018,08,06,02,12,18.50
2018,08,06,02,13,18.40
2018,08,06,02,14,18.40
2018,08,06,02,15,18.30
2018,08,06,02,16,18.30
2018,08,06,02,17,18.30
2018,08,06,02,18,18.20
2018,08,06,02,19,18.20
2018,08,06,02,20,18.10
2018,08,06,02,21,18.10
2018,08,06,02,22,18.00
2018,08,06,02,23,18.00
2018,08,06,02,24,17.90
2018,08,06,02,25,17.90
2018,08,06,02,26,17.90
2018,08,06,02,27,17.90
2018,08,06,02,28,17.90
2018,08,06,02,29,17.90
2018,08,06,02,30,17.90
2018,08,06,02,31,17.90
2018,08,06,02,32,18.00
2018,08,06,02,33,18.00
2018,08,06,02,34,18.00
2018,08,06,02,35,18.00
2018,08,06,02,36,18.00
2018,08,06,02,37,18.10
2018,08,06,02,38,18.10
2018,08,06,02,39,18.00
2018,08,06,02,40,18.00
2018,08,06,02,41,17.90
2018,08,06,02,42,17.90
2018,08,06,02,43,17.80
2018,08,06,02,44,17.80
2018,08,06,02,45,17.80
2018,08,06,02,46,17.70
2018,08,06,02,47,17.70
2018,08,06,02,48,17.70
2018,08,06,02,49,17.60
2018,08,06,02,50,17.60
2018,08,06,02,51,17.50
2018,08,06,02,52,17.50
2018,08,06,02,53,17.40
2018,08,06,02,54,17.40
2018,08,06,02,55,17.40
2018,08,06,02,56,17.50
2018,08,06,02,57,17.50
2018,08,06,02,58,17.50
2018,08,06,02,59,17.60
2018,08,06,03,00,17.70
2018,08,06,03,01,17.80
2018,08,06,03,02,17.90
2018,08,06,03,03,18.00
2018,08,06,03,04,18.20
2018,08,06,03,05,18.20
2018,08,06,03,06,18.20
2018,08,06,03,07,18.20
2018,08,06,03,08,18.20
2018,08,06,03,09,18.20
2018,08,06,03,10,18.10
2018,08,06,03,11,18.10
2018,08,06,03,12,18.10
2018,08,06,03,13,18.10
2018,08,06,03,14,18.10
2018,08,06,03,15,18.10
2018,08,06,03,16,18.20
2018,08,06,03,17,18.20
2018,08,06,03,18,18.20
2018,08,06,03,19,18.20
2018,08,06,03,20,18.20
2018,08,06,03,21,18.20
2018,08,06,03,22,18.20
2018,08,06,03,23,18.20
2018,08,06,03,24,18.20
2018,08,06,03,25,18.20
2018,08,06,03,26,18.20
2018,08,06,03,27,18.20
2018,08,06,03,28,18.20
2018,08,06,03,29,18.20
2018,08,06,03,30,18.20
2018,08,06,03,31,18.20
2018,08,06,03,32,18.20
2018,08,06,03,33,18.10
2018,08,06,03,34,18.10
2018,08,06,03,35,18.00
2018,08,06,03,36,18.00
2018,08,06,03,37,17.90
2018,08,06,03,38,17.90
2018,08,06,03,39,17.80
2018,08,06,03,40,17.80
2018,08,06,03,41,17.80
2018,08,06,03,42,17.70
2018,08,06,03,43,17.70
2018,08,06,03,44,17.60
2018,08,06,03,45,17.60
2018,08,06,03,46,17.60
2018,08,06,03,47,17.50
2018,08,06,03,48,17.40
2018,08,06,03,49,17.30
2018,08,06,03,50,17.30
2018,08,06,03,51,17.20
2018,08,06,03,52,17.20
2018,08,06,03,53,17.10
2018,08,06,03,54,17.10
2018,08,06,03,55,17.00
2018,08,06,03,56,16.90
2018,08,06,03,57,16.90
2018,08,06,03,58,16.90
2018,08,06,03,59,16.80
2018,08,06,04,00,16.80
2018,08,06,04,01,16.80
2018,08,06,04,02,16.70
2018,08,06,04,03,16.70
2018,08,06,04,04,16.60
2018,08,06,04,05,16.60
2018,08,06,04,06,16.60
2018,08,06,04,07,16.50
2018,08,06,04,08,16.50
2018,08,06,04,09,16.50
2018,08,06,04,10,16.40
2018,08,06,04,11,16.40
2018,08,06,04,12,16.40
2018,08,06,04,13,16.40
2018,08,06,04,14,16.40
2018,08,06,04,15,16.30
2018,08,06,04,16,16.30
2018,08,06,04,17,16.30
2018,08,06,04,18,16.30
2018,08,06,04,19,16.30
2018,08,06,04,20,16.20
2018,08,06,04,21,16.20
2018,08,06,04,22,16.20
2018,08,06,04,23,16.30
2018,08,06,04,24,16.30
2018,08,06,04,25,16.30
2018,08,06,04,26,16.30
2018,08,06,04,27,16.30
2018,08,06,04,28,16.30
2018,08,06,04,29,16.30
2018,08,06,04,30,16.30
2018,08,06,04,31,16.20
2018,08,06,04,32,16.20
2018,08,06,04,33,16.20
2018,08,06,04,34,16.10
2018,08,06,04,35,16.10
2018,08,06,04,36,16.00
2018,08,06,04,37,16.00
2018,08,06,04,38,15.90
2018,08,06,04,39,15.90
2018,08,06,04,40,15.90
2018,08,06,04,41,15.80
2018,08,06,04,42,15.80
2018,08,06,04,43,15.80
2018,08,06,04,44,15.80
2018,08,06,04,45,15.70
2018,08,06,04,46,15.70
2018,08,06,04,47,15.70
2018,08,06,04,48,15.70
2018,08,06,04,49,15.70
2018,08,06,04,50,15.70
2018,08,06,04,51,15.70
2018,08,06,04,52,15.70
2018,08,06,04,53,15.70
2018,08,06,04,54,15.70
2018,08,06,04,55,15.70
2018,08,06,04,56,15.70
2018,08,06,04,57,15.80
2018,08,06,04,58,15.80
2018,08,06,04,59,15.80
2018,08,06,05,00,15.80
2018,08,06,05,01,15.80
2018,08,06,05,02,15.90
2018,08,06,05,03,15.90
2018,08,06,05,04,15.90
2018,08,06,05,05,15.90
2018,08,06,05,06,15.90
2018,08,06,05,07,16.00
2018,08,06,05,08,16.00
2018,08,06,05,09,16.00
2018,08,06,05,10,16.10
2018,08,06,05,11,16.10
2018,08,06,05,12,16.20
2018,08,06,05,13,16.20
2018,08,06,05,14,16.30
2018,08,06,05,15,16.30
2018,08,06,05,16,16.30
2018,08,06,05,17,16.30
2018,08,06,05,18,16.20
2018,08,06,05,19,16.20
2018,08,06,05,20,16.10
2018,08,06,05,21,16.00
2018,08,06,05,22,16.00
2018,08,06,05,23,16.00
2018,08,06,05,24,15.90
2018,08,06,05,25,15.90
2018,08,06,05,26,15.90
2018,08,06,05,27,15.90
2018,08,06,05,28,15.90
2018,08,06,05,29,15.90
2018,08,06,05,30,15.90
2018,08,06,05,31,16.00
2018,08,06,05,32,16.10
2018,08,06,05,33,16.20
2018,08,06,05,34,16.20
2018,08,06,05,35,16.30
2018,08,06,05,36,16.40
2018,08,06,05,37,16.50
2018,08,06,05,38,16.60
2018,08,06,05,39,16.60
2018,08,06,05,40,16.60
2018,08,06,05,41,16.50
2018,08,06,05,42,16.50
2018,08,06,05,43,16.40
2018,08,06,05,44,16.40
2018,08,06,05,45,16.40
2018,08,06,05,46,16.30
2018,08,06,05,47,16.30
2018,08,06,05,48,16.20
2018,08,06,05,49,16.20
2018,08,06,05,50,16.20
2018,08,06,05,51,16.20
2018,08,06,05,52,16.10
2018,08,06,05,53,16.10
2018,08,06,05,54,16.10
2018,08,06,05,55,16.10
2018,08,06,05,56,16.10
2018,08,06,05,57,16.10
2018,08,06,05,58,16.10
2018,08,06,05,59,16.00
2018,08,06,06,00,16.00
2018,08,06,06,01,16.00
2018,08,06,06,02,16.00
2018,08,06,06,03,16.00
2018,08,06,06,04,16.00
2018,08,06,06,05,16.00
2018,08,06,06,06,16.00
2018,08,06,06,07,16.00
2018,08,06,06,08,16.10
2018,08,06,06,09,16.10
2018,08,06,06,10,16.10
2018,08,06,06,11,16.10
2018,08,06,06,12,16.10
2018,08,06,06,13,16.10
2018,08,06,06,14,16.00
2018,08,06,06,15,16.10
2018,08,06,06,16,16.10
2018,08,06,06,17,16.10
2018,08,06,06,18,16.10
2018,08,06,06,19,16.10
2018,08,06,06,20,16.10
2018,08,06,06,21,16.10
2018,08,06,06,22,16.10
2018,08,06,06,23,16.20
2018,08,06,06,24,16.20
2018,08,06,06,25,16.30
2018,08,06,06,26,16.30
2018,08,06,06,27,16.30
2018,08,06,06,28,16.30
2018,08,06,06,29,16.30
2018,08,06,06,30,16.30
2018,08,06,06,31,16.30
2018,08,06,06,32,16.30
2018,08,06,06,33,16.30
2018,08,06,06,34,16.30
2018,08,06,06,35,16.30
2018,08,06,06,36,16.30
2018,08,06,06,37,16.30
2018,08,06,06,38,16.30
2018,08,06,06,39,16.30
2018,08,06,06,40,16.30
2018,08,06,06,41,16.40
2018,08,06,06,42,16.40
2018,08,06,06,43,16.40
2018,08,06,06,44,16.40
2018,08,06,06,45,16.40
2018,08,06,06,46,16.40
2018,08,06,06,47,16.40
2018,08,06,06,48,16.40
2018,08,06,06,49,16.40
2018,08,06,06,50,16.50
2018,08,06,06,51,16.60
2018,08,06,06,52,16.60
2018,08,06,06,53,16.70
2018,08,06,06,54,16.80
2018,08,06,06,55,16.90
2018,08,06,06,56,17.00
2018,08,06,06,57,17.10
2018,08,06,06,58,17.20
2018,08,06,06,59,17.30
2018,08,06,07,00,17.30
2018,08,06,07,01,17.40
2018,08,06,07,02,17.50
2018,08,06,07,03,17.50
2018,08,06,07,04,17.60
2018,08,06,07,05,17.60
2018,08,06,07,06,17.70
2018,08,06,07,07,17.70
2018,08,06,07,08,17.70
2018,08,06,07,09,17.80
2018,08,06,07,10,17.80
2018,08,06,07,11,17.80
2018,08,06,07,12,17.80
2018,08,06,07,13,17.90
2018,08,06,07,14,17.90
2018,08,06,07,15,18.00
2018,08,06,07,16,18.10
2018,08,06,07,17,18.10
2018,08,06,07,18,18.20
2018,08,06,07,19,18.20
2018,08,06,07,20,18.30
2018,08,06,07,21,18.30
2018,08,06,07,22,18.30
2018,08,06,07,23,18.40
2018,08,06,07,24,18.40
2018,08,06,07,25,18.40
2018,08,06,07,26,18.40
2018,08,06,07,27,18.50
2018,08,06,07,28,18.60
2018,08,06,07,29,18.60
2018,08,06,07,30,18.70
2018,08,06,07,31,18.70
2018,08,06,07,32,18.80
2018,08,06,07,33,18.90
2018,08,06,07,34,18.90
2018,08,06,07,35,19.00
2018,08,06,07,36,19.10
2018,08,06,07,37,19.10
2018,08,06,07,38,19.20
2018,08,06,07,39,19.30
2018,08,06,07,40,19.40
2018,08,06,07,41,19.50
2018,08,06,07,42,19.50
2018,08,06,07,43,19.60
2018,08,06,07,44,19.70
2018,08,06,07,45,19.80
2018,08,06,07,46,19.80
2018,08,06,07,47,19.90
2018,08,06,07,48,20.00
2018,08,06,07,49,20.00
2018,08,06,07,50,20.10
2018,08,06,07,51,20.10
2018,08,06,07,52,20.10
2018,08,06,07,53,20.20
2018,08,06,07,54,20.20
2018,08,06,07,55,20.30
2018,08,06,07,56,20.40
2018,08,06,07,57,20.50
2018,08,06,07,58,20.60
2018,08,06,07,59,20.70
2018,08,06,08,00,20.80
2018,08,06,08,01,20.80
2018,08,06,08,02,20.90
2018,08,06,08,03,20.90
2018,08,06,08,04,21.00
2018,08,06,08,05,21.10
2018,08,06,08,06,21.10
2018,08,06,08,07,21.20
2018,08,06,08,08,21.20
2018,08,06,08,09,21.30
2018,08,06,08,10,21.30
2018,08,06,08,11,21.30
2018,08,06,08,12,21.30
2018,08,06,08,13,21.30
2018,08,06,08,14,21.30
2018,08,06,08,15,21.30
2018,08,06,08,16,21.30
2018,08,06,08,17,21.30
2018,08,06,08,18,21.30
2018,08,06,08,19,21.30
2018,08,06,08,20,21.40
2018,08,06,08,21,21.40
2018,08,06,08,22,21.50
2018,08,06,08,23,21.50
2018,08,06,08,24,21.60
2018,08,06,08,25,21.60
2018,08,06,08,26,21.70
2018,08,06,08,27,21.70
2018,08,06,08,28,21.80
2018,08,06,08,29,21.80
2018,08,06,08,30,21.80
2018,08,06,08,31,21.90
2018,08,06,08,32,21.90
2018,08,06,08,33,21.90
2018,08,06,08,34,21.90
2018,08,06,08,35,21.90
2018,08,06,08,36,21.90
2018,08,06,08,37,22.00
2018,08,06,08,38,22.00
2018,08,06,08,39,22.10
2018,08,06,08,40,22.20
2018,08,06,08,41,22.30
2018,08,06,08,42,22.30
2018,08,06,08,43,22.40
2018,08,06,08,44,22.50
2018,08,06,08,45,22.50
2018,08,06,08,46,22.60
2018,08,06,08,47,22.70
2018,08,06,08,48,22.70
2018,08,06,08,49,22.80
2018,08,06,08,50,22.90
2018,08,06,08,51,22.90
2018,08,06,08,52,23.00
2018,08,06,08,53,23.00
2018,08,06,08,54,23.10
2018,08,06,08,55,23.10
2018,08,06,08,56,23.10
2018,08,06,08,57,23.10
2018,08,06,08,58,23.10
2018,08,06,08,59,23.10
2018,08,06,09,00,23.10
2018,08,06,09,01,23.10
2018,08,06,09,02,23.10
2018,08,06,09,03,23.10
2018,08,06,09,04,23.10
2018,08,06,09,05,23.20
2018,08,06,09,06,23.20
2018,08,06,09,07,23.20
2018,08,06,09,08,23.30
2018,08,06,09,09,23.30
2018,08,06,09,10,23.30
2018,08,06,09,11,23.30
2018,08,06,09,12,23.30
2018,08,06,09,13,23.30
2018,08,06,09,14,23.30
2018,08,06,09,15,23.20
2018,08,06,09,16,23.20
2018,08,06,09,17,23.20
2018,08,06,09,18,23.20
2018,08,06,09,19,23.20
2018,08,06,09,20,23.20
2018,08,06,09,21,23.20
2018,08,06,09,22,23.30
2018,08,06,09,23,23.30
2018,08,06,09,24,23.30
2018,08,06,09,25,23.30
2018,08,06,09,26,23.30
2018,08,06,09,27,23.40
2018,08,06,09,28,23.50
2018,08,06,09,29,23.50
2018,08,06,09,30,23.60
2018,08,06,09,31,23.70
2018,08,06,09,32,23.70
2018,08,06,09,33,23.70
2018,08,06,09,34,23.80
2018,08,06,09,35,23.80
2018,08,06,09,36,23.80
2018,08,06,09,37,23.80
2018,08,06,09,38,23.80
2018,08,06,09,39,23.80
2018,08,06,09,40,23.90
2018,08,06,09,41,23.90
2018,08,06,09,42,23.90
2018,08,06,09,43,23.90
2018,08,06,09,44,23.90
2018,08,06,09,45,23.90
2018,08,06,09,46,23.90
2018,08,06,09,47,23.90
2018,08,06,09,48,23.90
2018,08,06,09,49,23.90
2018,08,06,09,50,23.90
2018,08,06,09,51,23.90
2018,08,06,09,52,24.00
2018,08,06,09,53,24.00
2018,08,06,09,54,24.00
2018,08,06,09,55,24.00
2018,08,06,09,56,24.10
2018,08,06,09,57,24.10
2018,08,06,09,58,24.20
2018,08,06,09,59,24.20
2018,08,06,10,00,24.20
2018,08,06,10,01,24.20
2018,08,06,10,02,24.20
2018,08,06,10,03,24.20
2018,08,06,10,04,24.20
2018,08,06,10,05,24.20
2018,08,06,10,06,24.20
2018,08,06,10,07,24.20
2018,08,06,10,08,24.20
2018,08,06,10,09,24.20
2018,08,06,10,10,24.20
2018,08,06,10,11,24.20
2018,08,06,10,12,24.30
2018,08,06,10,13,24.30
2018,08,06,10,14,24.30
2018,08,06,10,15,24.30
2018,08,06,10,16,24.40
2018,08,06,10,17,24.50
2018,08,06,10,18,24.50
2018,08,06,10,19,24.60
2018,08,06,10,20,24.70
2018,08,06,10,21,24.80
2018,08,06,10,22,24.80
2018,08,06,10,23,24.90
2018,08,06,10,24,24.90
2018,08,06,10,25,24.90
2018,08,06,10,26,24.90
2018,08,06,10,27,25.00
2018,08,06,10,28,25.00
2018,08,06,10,29,25.10
2018,08,06,10,30,25.10
2018,08,06,10,31,25.10
2018,08,06,10,32,25.10
2018,08,06,10,33,25.10
2018,08,06,10,34,25.10
2018,08,06,10,35,25.10
2018,08,06,10,36,25.10
2018,08,06,10,37,25.10
2018,08,06,10,38,25.20
2018,08,06,10,39,25.20
2018,08,06,10,40,25.30
2018,08,06,10,41,25.40
2018,08,06,10,42,25.40
2018,08,06,10,43,25.50
2018,08,06,10,44,25.60
2018,08,06,10,45,25.60
2018,08,06,10,46,25.70
2018,08,06,10,47,25.80
2018,08,06,10,48,25.80
2018,08,06,10,49,25.80
2018,08,06,10,50,25.80
2018,08,06,10,51,25.90
2018,08,06,10,52,25.90
2018,08,06,10,53,25.90
2018,08,06,10,54,26.00
2018,08,06,10,55,26.00
2018,08,06,10,56,26.00
2018,08,06,10,57,26.00
2018,08,06,10,58,26.00
2018,08,06,10,59,25.90
2018,08,06,11,00,26.00
2018,08,06,11,01,25.90
2018,08,06,11,02,25.90
2018,08,06,11,03,25.90
2018,08,06,11,04,25.80
2018,08,06,11,05,25.80
2018,08,06,11,06,25.80
2018,08,06,11,07,25.80
2018,08,06,11,08,25.80
2018,08,06,11,09,25.80
2018,08,06,11,10,25.70
2018,08,06,11,11,25.70
2018,08,06,11,12,25.70
2018,08,06,11,13,25.70
2018,08,06,11,14,25.70
2018,08,06,11,15,25.60
2018,08,06,11,16,25.60
2018,08,06,11,17,25.70
2018,08,06,11,18,25.70
2018,08,06,11,19,25.70
2018,08,06,11,20,25.80
2018,08,06,11,21,25.80
2018,08,06,11,22,25.80
2018,08,06,11,23,25.80
2018,08,06,11,24,25.90
2018,08,06,11,25,26.00
2018,08,06,11,26,26.10
2018,08,06,11,27,26.20
2018,08,06,11,28,26.20
2018,08,06,11,29,26.30
2018,08,06,11,30,26.30
2018,08,06,11,31,26.20
2018,08,06,11,32,26.20
2018,08,06,11,33,26.30
2018,08,06,11,34,26.30
2018,08,06,11,35,26.30
2018,08,06,11,36,26.20
2018,08,06,11,37,26.10
2018,08,06,11,38,26.10
2018,08,06,11,39,26.10
2018,08,06,11,40,26.10
2018,08,06,11,41,26.10
2018,08,06,11,42,26.20
2018,08,06,11,43,26.30
2018,08,06,11,44,26.40
2018,08,06,11,45,26.50
2018,08,06,11,46,26.50
2018,08,06,11,47,26.60
2018,08,06,11,48,26.60
2018,08,06,11,49,26.70
2018,08,06,11,50,26.80
2018,08,06,11,51,26.90
2018,08,06,11,52,27.00
2018,08,06,11,53,27.00
2018,08,06,11,54,27.10
2018,08,06,11,55,27.10
2018,08,06,11,56,27.10
2018,08,06,11,57,27.10
2018,08,06,11,58,27.10
2018,08,06,11,59,27.00
2018,08,06,12,00,27.00
2018,08,06,12,01,27.00
2018,08,06,12,02,26.90
2018,08,06,12,03,26.90
2018,08,06,12,04,26.90
2018,08,06,12,05,26.80
2018,08,06,12,06,26.90
2018,08,06,12,07,26.90
2018,08,06,12,08,27.00
2018,08,06,12,09,27.00
2018,08,06,12,10,27.10
2018,08,06,12,11,27.10
2018,08,06,12,12,27.10
2018,08,06,12,13,27.10
2018,08,06,12,14,27.20
2018,08,06,12,15,27.20
2018,08,06,12,16,27.20
2018,08,06,12,17,27.20
2018,08,06,12,18,27.20
2018,08,06,12,19,27.20
2018,08,06,12,20,27.20
2018,08,06,12,21,27.20
2018,08,06,12,22,27.20
2018,08,06,12,23,27.30
2018,08,06,12,24,27.30
2018,08,06,12,25,27.20
2018,08,06,12,26,27.20
2018,08,06,12,27,27.10
2018,08,06,12,28,27.10
2018,08,06,12,29,27.10
2018,08,06,12,30,27.10
2018,08,06,12,31,27.10
2018,08,06,12,32,27.20
2018,08,06,12,33,27.20
2018,08,06,12,34,27.30
2018,08,06,12,35,27.30
2018,08,06,12,36,27.30
2018,08,06,12,37,27.30
2018,08,06,12,38,27.30
2018,08,06,12,39,27.30
2018,08,06,12,40,27.30
2018,08,06,12,41,27.30
2018,08,06,12,42,27.40
2018,08,06,12,43,27.40
2018,08,06,12,44,27.40
2018,08,06,12,45,27.40
2018,08,06,12,46,27.40
2018,08,06,12,47,27.40
2018,08,06,12,48,27.30
2018,08,06,12,49,27.30
2018,08,06,12,50,27.40
2018,08,06,12,51,27.40
2018,08,06,12,52,27.50
2018,08,06,12,53,27.60
2018,08,06,12,54,27.60
2018,08,06,12,55,27.70
2018,08,06,12,56,27.70
2018,08,06,12,57,27.80
2018,08,06,12,58,27.90
2018,08,06,12,59,28.00
2018,08,06,13,00,28.00
2018,08,06,13,01,28.10
2018,08,06,13,02,28.10
2018,08,06,13,03,28.00
2018,08,06,13,04,28.00
2018,08,06,13,05,28.00
2018,08,06,13,06,28.10
2018,08,06,13,07,28.10
2018,08,06,13,08,28.20
2018,08,06,13,09,28.30
2018,08,06,13,10,28.30
2018,08,06,13,11,28.30
2018,08,06,13,12,28.30
2018,08,06,13,13,28.30
2018,08,06,13,14,28.30
2018,08,06,13,15,28.30
2018,08,06,13,16,28.30
2018,08,06,13,17,28.40
2018,08,06,13,18,28.40
2018,08,06,13,19,28.40
2018,08,06,13,20,28.40
2018,08,06,13,21,28.40
2018,08,06,13,22,28.30
2018,08,06,13,23,28.30
2018,08,06,13,24,28.20
2018,08,06,13,25,28.20
2018,08,06,13,26,28.20
2018,08,06,13,27,28.10
2018,08,06,13,28,28.10
2018,08,06,13,29,28.10
2018,08,06,13,30,28.10
2018,08,06,13,31,28.10
2018,08,06,13,32,28.10
2018,08,06,13,33,28.10
2018,08,06,13,34,28.10
2018,08,06,13,35,28.10
2018,08,06,13,36,28.10
2018,08,06,13,37,28.10
2018,08,06,13,38,28.10
2018,08,06,13,39,28.10
2018,08,06,13,40,28.10
2018,08,06,13,41,28.20
2018,08,06,13,42,28.20
2018,08,06,13,43,28.20
2018,08,06,13,44,28.10
2018,08,06,13,45,28.10
2018,08,06,13,46,28.20
2018,08,06,13,47,28.20
2018,08,06,13,48,28.30
2018,08,06,13,49,28.30
2018,08,06,13,50,28.30
2018,08,06,13,51,28.30
2018,08,06,13,52,28.30
2018,08,06,13,53,28.20
2018,08,06,13,54,28.20
2018,08,06,13,55,28.20
2018,08,06,13,56,28.20
2018,08,06,13,57,28.20
2018,08,06,13,58,28.30
2018,08,06,13,59,28.30
2018,08,06,14,00,28.40
2018,08,06,14,01,28.40
2018,08,06,14,02,28.50
2018,08,06,14,03,28.50
2018,08,06,14,04,28.60
2018,08,06,14,05,28.60
2018,08,06,14,06,28.60
2018,08,06,14,07,28.70
2018,08,06,14,08,28.80
2018,08,06,14,09,28.90
2018,08,06,14,10,29.10
2018,08,06,14,11,29.20
2018,08,06,14,12,29.30
2018,08,06,14,13,29.50
2018,08,06,14,14,29.50
2018,08,06,14,15,29.60
2018,08,06,14,16,29.50
2018,08,06,14,17,29.50
2018,08,06,14,18,29.40
2018,08,06,14,19,29.40
2018,08,06,14,20,29.40
2018,08,06,14,21,29.30
2018,08,06,14,22,29.30
2018,08,06,14,23,29.20
2018,08,06,14,24,29.10
2018,08,06,14,25,29.00
2018,08,06,14,26,29.00
2018,08,06,14,27,29.00
2018,08,06,14,28,29.10
2018,08,06,14,29,29.10
2018,08,06,14,30,29.10
2018,08,06,14,31,29.10
2018,08,06,14,32,29.10
2018,08,06,14,33,29.20
2018,08,06,14,34,29.30
2018,08,06,14,35,29.30
2018,08,06,14,36,29.40
2018,08,06,14,37,29.40
2018,08,06,14,38,29.40
2018,08,06,14,39,29.40
2018,08,06,14,40,29.40
2018,08,06,14,41,29.40
2018,08,06,14,42,29.40
2018,08,06,14,43,29.40
2018,08,06,14,44,29.40
2018,08,06,14,45,29.40
2018,08,06,14,46,29.40
2018,08,06,14,47,29.40
2018,08,06,14,48,29.40
2018,08,06,14,49,29.40
2018,08,06,14,50,29.50
2018,08,06,14,51,29.50
2018,08,06,14,52,29.60
2018,08,06,14,53,29.60
2018,08,06,14,54,29.60
2018,08,06,14,55,29.60
2018,08,06,14,56,29.60
2018,08,06,14,57,29.60
2018,08,06,14,58,29.70
2018,08,06,14,59,29.60
2018,08,06,15,00,29.60
2018,08,06,15,01,29.60
2018,08,06,15,02,29.60
2018,08,06,15,03,29.50
2018,08,06,15,04,29.50
2018,08,06,15,05,29.40
2018,08,06,15,06,29.40
2018,08,06,15,07,29.40
2018,08,06,15,08,29.40
2018,08,06,15,09,29.40
2018,08,06,15,10,29.40
2018,08,06,15,11,29.40
2018,08,06,15,12,29.40
2018,08,06,15,13,29.40
2018,08,06,15,14,29.40
2018,08,06,15,15,29.30
2018,08,06,15,16,29.30
2018,08,06,15,17,29.30
2018,08,06,15,18,29.40
2018,08,06,15,19,29.50
2018,08,06,15,20,29.60
2018,08,06,15,21,29.60
2018,08,06,15,22,29.70
2018,08,06,15,23,29.70
2018,08,06,15,24,29.70
2018,08,06,15,25,29.70
2018,08,06,15,26,29.70
2018,08,06,15,27,29.70
2018,08,06,15,28,29.70
2018,08,06,15,29,29.60
2018,08,06,15,30,29.50
2018,08,06,15,31,29.40
2018,08,06,15,32,29.30
2018,08,06,15,33,29.30
2018,08,06,15,34,29.30
2018,08,06,15,35,29.30
2018,08,06,15,36,29.30
2018,08,06,15,37,29.30
2018,08,06,15,38,29.30
2018,08,06,15,39,29.40
2018,08,06,15,40,29.40
2018,08,06,15,41,29.40
2018,08,06,15,42,29.40
2018,08,06,15,43,29.50
2018,08,06,15,44,29.50
2018,08,06,15,45,29.50
2018,08,06,15,46,29.50
2018,08,06,15,47,29.40
2018,08,06,15,48,29.40
2018,08,06,15,49,29.40
2018,08,06,15,50,29.40
2018,08,06,15,51,29.50
2018,08,06,15,52,29.50
2018,08,06,15,53,29.60
2018,08,06,15,54,29.60
2018,08,06,15,55,29.60
2018,08,06,15,56,29.60
2018,08,06,15,57,29.60
2018,08,06,15,58,29.40
2018,08,06,15,59,29.40
2018,08,06,16,00,29.40
2018,08,06,16,01,29.40
2018,08,06,16,02,29.40
2018,08,06,16,03,29.40
2018,08,06,16,04,29.40
2018,08,06,16,05,29.40
2018,08,06,16,06,29.40
2018,08,06,16,07,29.50
2018,08,06,16,08,29.40
2018,08,06,16,09,29.40
2018,08,06,16,10,29.40
2018,08,06,16,11,29.40
2018,08,06,16,12,29.30
2018,08,06,16,13,29.30
2018,08,06,16,14,29.30
2018,08,06,16,15,29.30
2018,08,06,16,16,29.30
2018,08,06,16,17,29.30
2018,08,06,16,18,29.30
2018,08,06,16,19,29.30
2018,08,06,16,20,29.20
2018,08,06,16,21,29.20
2018,08,06,16,22,29.20
2018,08,06,16,23,29.20
2018,08,06,16,24,29.20
2018,08,06,16,25,29.20
2018,08,06,16,26,29.20
2018,08,06,16,27,29.20
2018,08,06,16,28,29.20
2018,08,06,16,29,29.10
2018,08,06,16,30,29.10
2018,08,06,16,31,29.10
2018,08,06,16,32,29.10
2018,08,06,16,33,29.10
2018,08,06,16,34,29.10
2018,08,06,16,35,29.10
2018,08,06,16,36,29.10
2018,08,06,16,37,29.10
2018,08,06,16,38,29.10
2018,08,06,16,39,29.10
2018,08,06,16,40,29.20
2018,08,06,16,41,29.20
2018,08,06,16,42,29.10
2018,08,06,16,43,29.10
2018,08,06,16,44,29.10
2018,08,06,16,45,29.10
2018,08,06,16,46,29.10
2018,08,06,16,47,29.10
2018,08,06,16,48,29.10
2018,08,06,16,49,29.10
2018,08,06,16,50,29.10
2018,08,06,16,51,29.10
2018,08,06,16,52,29.10
2018,08,06,16,53,29.10
2018,08,06,16,54,29.10
2018,08,06,16,55,29.10
2018,08,06,16,56,29.20
2018,08,06,16,57,29.20
2018,08,06,16,58,29.30
2018,08,06,16,59,29.30
2018,08,06,17,00,29.30
2018,08,06,17,01,29.30
2018,08,06,17,02,29.30
2018,08,06,17,03,29.30
2018,08,06,17,04,29.30
2018,08,06,17,05,29.30
2018,08,06,17,06,29.30
2018,08,06,17,07,29.40
2018,08,06,17,08,29.40
2018,08,06,17,09,29.40
2018,08,06,17,10,29.40
2018,08,06,17,11,29.40
2018,08,06,17,12,29.40
2018,08,06,17,13,29.40
2018,08,06,17,14,29.40
2018,08,06,17,15,29.30
2018,08,06,17,16,29.30
2018,08,06,17,17,29.20
2018,08,06,17,18,29.20
2018,08,06,17,19,29.20